Tacoma MET current weather conditions

sailwx.info

Wind from 134 at 3 knots gusting 3

Last reported at 2019-Dec-09 11:42 UTC.
Time now 2019-Dec-09 12:25 UTC

Location: N 47°17' W 122°25'.
View on Google Maps.

See reports from other nearby stations

  
Tides and Currents Weather Stations Pressure Air Temp Water Temp Dewpoint Dewpoint Depression Visibility Wind Speed Wind Dir Waves Ship Positions
date/time (UTC)wind fromknots sea level pressurealtimeterstation pressurevisibilityair tempwater tempwave heightnotes
2019-Dec-09 11:42 134 3 gusting 3
2019-Dec-09 11:36 131 3 gusting 3
2019-Dec-09 11:30 136 2 gusting 3
2019-Dec-09 11:24 131 3 gusting 3
2019-Dec-09 11:18 135 2 gusting 3
2019-Dec-09 11:12 152 2 gusting 3
2019-Dec-09 11:06 148 2 gusting 3
2019-Dec-09 11:00 145 3 gusting 4
2019-Dec-09 10:54 143 3 gusting 5
2019-Dec-09 10:48 140 3 gusting 4
2019-Dec-09 10:42 148 4 gusting 5
2019-Dec-09 10:36 139 3 gusting 4
2019-Dec-09 10:30 148 2 gusting 3
2019-Dec-09 10:24 151 1 gusting 4
2019-Dec-09 10:18 163 1 gusting 3
2019-Dec-09 10:12 153 2 gusting 3
2019-Dec-09 10:06 138 1 gusting 3
2019-Dec-09 10:00 132 3 gusting 4
2019-Dec-09 09:54 133 2 gusting 3
2019-Dec-09 09:48 169 2 gusting 3
2019-Dec-09 09:42 152 0 gusting 2
2019-Dec-09 09:36 238
2019-Dec-09 09:30 160
2019-Dec-09 09:24 097 0 gusting 2
2019-Dec-09 09:18 096 2 gusting 3
2019-Dec-09 09:12 096 3 gusting 4
2019-Dec-09 09:06 094 3 gusting 4
2019-Dec-09 09:00 108 3 gusting 4
2019-Dec-09 08:54 100 3 gusting 4
2019-Dec-09 08:48 109 3 gusting 3
2019-Dec-09 08:42 054 1 gusting 2
2019-Dec-09 08:36 066 1 gusting 2
2019-Dec-09 08:30 059 1 gusting 2
2019-Dec-09 08:24 045 1 gusting 3
2019-Dec-09 08:18 051 1 gusting 1
2019-Dec-09 08:12 086 0 gusting 1
2019-Dec-09 08:06 112 0 gusting 1
2019-Dec-09 08:00 112 1 gusting 2
2019-Dec-09 07:54 103 1 gusting 2
2019-Dec-09 07:48 103 1 gusting 1
2019-Dec-09 07:42 082 1 gusting 1
2019-Dec-09 07:36 064
2019-Dec-09 07:30 129
2019-Dec-09 07:24 240
2019-Dec-09 07:18 127
2019-Dec-09 07:12 209
2019-Dec-09 07:06 062
2019-Dec-09 07:00 088
2019-Dec-09 06:54 130 0 gusting 1
2019-Dec-09 06:48 315
2019-Dec-09 06:42 292 1 gusting 2
2019-Dec-09 06:36 308 2 gusting 3
2019-Dec-09 06:30 288 3 gusting 5
2019-Dec-09 06:24 298 3 gusting 5
2019-Dec-09 06:18 297 3 gusting 4
2019-Dec-09 06:12 293 3 gusting 3
2019-Dec-09 06:06 299 2 gusting 4
2019-Dec-09 06:00 332 2 gusting 3
2019-Dec-09 05:54 333 3 gusting 4
2019-Dec-09 05:48 007 3 gusting 4
2019-Dec-09 05:42 002 3 gusting 5
2019-Dec-09 05:36 024 2 gusting 5
2019-Dec-09 05:30 356 3 gusting 3
2019-Dec-09 05:24 002 2 gusting 3
2019-Dec-09 05:18 328 1 gusting 3
2019-Dec-09 05:12 299 2 gusting 4
2019-Dec-09 05:06 307 4 gusting 5
2019-Dec-09 05:00 306 5 gusting 5
2019-Dec-09 04:54 314 3 gusting 4
2019-Dec-09 04:48 317 4 gusting 4
2019-Dec-09 04:42 330 4 gusting 5
2019-Dec-09 04:36 324 5 gusting 6
2019-Dec-09 04:30 312 6 gusting 6
2019-Dec-09 04:24 306 4 gusting 5
2019-Dec-09 04:18 291 5 gusting 6
2019-Dec-09 04:12 294 5 gusting 5
2019-Dec-09 04:06 285 5 gusting 5
2019-Dec-09 04:00 316 2 gusting 3
2019-Dec-09 03:54 307 1 gusting 2
2019-Dec-09 03:48 281 1 gusting 1
2019-Dec-09 03:42 186 0 gusting 1
2019-Dec-09 03:36 264 1 gusting 1
2019-Dec-09 03:30 152
2019-Dec-09 03:24 164 0 gusting 2
2019-Dec-09 03:18 135 1 gusting 3
2019-Dec-09 03:12 346 3 gusting 3
2019-Dec-09 03:06 004 1 gusting 2
2019-Dec-09 03:00 257 1 gusting 3
2019-Dec-09 02:54 248 2 gusting 3
2019-Dec-09 02:48 225 0 gusting 1
2019-Dec-09 02:42 289 0 gusting 3
2019-Dec-09 02:36 193 1 gusting 2
2019-Dec-09 02:30 066 1 gusting 5
2019-Dec-09 02:24 021 5 gusting 6
2019-Dec-09 02:18 023 6 gusting 7
2019-Dec-09 02:12 010 4 gusting 5
2019-Dec-09 02:06 002 3 gusting 4
2019-Dec-09 02:00 345 3 gusting 4
2019-Dec-09 01:54 350 3 gusting 3
2019-Dec-09 01:48 348 3 gusting 5
2019-Dec-09 01:36 342 4 gusting 5
2019-Dec-09 01:30 332 3 gusting 4
2019-Dec-09 01:24 330 4 gusting 5
2019-Dec-09 01:18 333 3 gusting 5
2019-Dec-09 01:12 328 4 gusting 5
2019-Dec-09 01:06 338 4 gusting 5
2019-Dec-09 01:00 344 3 gusting 6
2019-Dec-09 00:54 358 5 gusting 6
2019-Dec-09 00:48 019 6 gusting 7
2019-Dec-09 00:42 013 6 gusting 6
2019-Dec-09 00:36 008 6 gusting 7
2019-Dec-09 00:30 012 6 gusting 7
2019-Dec-09 00:24 358 5 gusting 6
2019-Dec-09 00:18 360 4 gusting 5
2019-Dec-09 00:12 351 4 gusting 5
2019-Dec-09 00:06 353 4 gusting 5
2019-Dec-09 00:00 352 3 gusting 4
2019-Dec-08 23:54 350 4 gusting 5
2019-Dec-08 23:42 335 5 gusting 6
2019-Dec-08 23:36 325 6 gusting 6
2019-Dec-08 23:30 323 6 gusting 6
2019-Dec-08 23:24 315 4 gusting 5
2019-Dec-08 23:18 312 4 gusting 4
2019-Dec-08 23:12 317 3 gusting 4
2019-Dec-08 23:06 315 4 gusting 5
2019-Dec-08 23:00 307 5 gusting 5
2019-Dec-08 22:54 302 5 gusting 5
2019-Dec-08 22:48 305 5 gusting 6
2019-Dec-08 22:42 313 5 gusting 6
2019-Dec-08 22:36 306 5 gusting 6
2019-Dec-08 22:30 291 6 gusting 6
2019-Dec-08 22:24 284 5 gusting 5
2019-Dec-08 22:18 285 4 gusting 4
2019-Dec-08 22:12 291 4 gusting 4
2019-Dec-08 22:06 293 4 gusting 5
2019-Dec-08 22:00 290 5 gusting 5
2019-Dec-08 21:54 291 5 gusting 5
2019-Dec-08 21:48 292 5 gusting 5
2019-Dec-08 21:42 285 4 gusting 4
2019-Dec-08 21:36 285 3 gusting 3
2019-Dec-08 21:30 286 3 gusting 3
2019-Dec-08 21:24 292 3 gusting 4
2019-Dec-08 21:18 298 3 gusting 4
2019-Dec-08 21:12 301 4 gusting 6
2019-Dec-08 21:06 306 6 gusting 6
2019-Dec-08 21:00 308 6 gusting 6
2019-Dec-08 20:54 302 4 gusting 4
2019-Dec-08 20:48 303 3 gusting 3
2019-Dec-08 20:42 294 4 gusting 4
2019-Dec-08 20:36 291 4 gusting 5
2019-Dec-08 20:30 285 5 gusting 5
2019-Dec-08 20:24 279 4 gusting 5
2019-Dec-08 20:18 287 3 gusting 3
2019-Dec-08 20:12 276 3 gusting 3
2019-Dec-08 20:06 296 2 gusting 2
2019-Dec-08 20:00 296 1 gusting 2
2019-Dec-08 19:54 005
2019-Dec-08 19:48 027 0 gusting 1
2019-Dec-08 19:42 022 1 gusting 3
2019-Dec-08 19:36 014 2 gusting 3
2019-Dec-08 19:30 003 1 gusting 3
2019-Dec-08 19:24 043 2 gusting 3
2019-Dec-08 19:18 274 1 gusting 3
2019-Dec-08 19:12 255 2 gusting 3
2019-Dec-08 19:06 243 3 gusting 3
2019-Dec-08 19:00 251 2 gusting 2
2019-Dec-08 18:54 236 1 gusting 1
2019-Dec-08 18:48 123
2019-Dec-08 18:42 066
2019-Dec-08 18:36 017
2019-Dec-08 18:30 017
2019-Dec-08 18:24 017
2019-Dec-08 18:18 017
2019-Dec-08 18:12 017 0 gusting 1
2019-Dec-08 18:06 351 0 gusting 0
2019-Dec-08 18:00 219
2019-Dec-08 17:54 219
2019-Dec-08 17:48 219
2019-Dec-08 17:42 207
2019-Dec-08 17:36 254 1 gusting 1
2019-Dec-08 17:30 226 1 gusting 1
2019-Dec-08 17:24 219 1 gusting 2
2019-Dec-08 17:18 234 1 gusting 2
2019-Dec-08 17:12 170 0 gusting 1
2019-Dec-08 17:06 158 0 gusting 1
2019-Dec-08 17:00 135 1 gusting 1
2019-Dec-08 16:54 144 0 gusting 1
2019-Dec-08 16:48 141 1 gusting 3
2019-Dec-08 16:42 152 2 gusting 3
2019-Dec-08 16:36 157 2 gusting 3
2019-Dec-08 16:30 160 1 gusting 2
2019-Dec-08 16:24 151 1 gusting 3
2019-Dec-08 16:18 119 2 gusting 2
2019-Dec-08 16:12 117 2 gusting 2
2019-Dec-08 16:06 120 1 gusting 2
2019-Dec-08 16:00 087 1 gusting 2
2019-Dec-08 15:54 096 1 gusting 2
2019-Dec-08 15:48 065
2019-Dec-08 15:42 030
2019-Dec-08 15:36 030
2019-Dec-08 15:30 028 0 gusting 0
2019-Dec-08 15:24 324
2019-Dec-08 15:18 324 1 gusting 1
2019-Dec-08 15:12 315 1 gusting 1
2019-Dec-08 15:06 322 1 gusting 2
2019-Dec-08 15:00 336 0 gusting 0
2019-Dec-08 14:54 016
2019-Dec-08 14:48 025
2019-Dec-08 14:42 025
2019-Dec-08 14:36 010 0 gusting 1
2019-Dec-08 14:30 349 1 gusting 1
2019-Dec-08 14:24 345 1 gusting 1
2019-Dec-08 14:18
2019-Dec-08 14:12 349 1 gusting 1
2019-Dec-08 14:06 338 1 gusting 1
2019-Dec-08 14:00 325 0 gusting 1
2019-Dec-08 13:54 003 1 gusting 1
2019-Dec-08 13:48 026 1 gusting 1
2019-Dec-08 13:42 018 1 gusting 2
2019-Dec-08 13:36 345 1 gusting 2
2019-Dec-08 13:30 015 1 gusting 2
2019-Dec-08 13:24 337 1 gusting 3
2019-Dec-08 13:18 343 2 gusting 3
2019-Dec-08 13:12 306 2 gusting 3
2019-Dec-08 13:06 278 2 gusting 3
2019-Dec-08 13:00 295 1 gusting 3
2019-Dec-08 12:54 332 2 gusting 4
2019-Dec-08 12:48 354 3 gusting 5
2019-Dec-08 12:42 354 3 gusting 4
2019-Dec-08 12:36 344 3 gusting 4
2019-Dec-08 12:30 019 2 gusting 4
2019-Dec-08 12:24 353 3 gusting 6
2019-Dec-08 12:18 001 5 gusting 6
2019-Dec-08 12:12 336 4 gusting 5
2019-Dec-08 12:06 342 4 gusting 6
2019-Dec-08 12:00 359 5 gusting 6
2019-Dec-08 11:54 008 6 gusting 8
2019-Dec-08 11:48 352 6 gusting 8
2019-Dec-08 11:42 351 6 gusting 7
2019-Dec-08 11:36 347 7 gusting 8
2019-Dec-08 11:30 346 7 gusting 8
2019-Dec-08 11:24 343 7 gusting 9
2019-Dec-08 11:18 341 7 gusting 8
2019-Dec-08 11:12 341 7 gusting 8
2019-Dec-08 11:06 338 7 gusting 7
2019-Dec-08 11:00 346 6 gusting 7
2019-Dec-08 10:54 348 6 gusting 6
2019-Dec-08 10:48 351 5 gusting 6
2019-Dec-08 10:42 334 4 gusting 5
2019-Dec-08 10:36 333 4 gusting 5
2019-Dec-08 10:30 356 4 gusting 5
2019-Dec-08 10:24 014 4 gusting 4
2019-Dec-08 10:18 004 3 gusting 3
2019-Dec-08 10:12 352 2 gusting 3
2019-Dec-08 10:06 007 1 gusting 2
2019-Dec-08 10:00 033 2 gusting 3
2019-Dec-08 09:54 020 1 gusting 2
2019-Dec-08 09:48 014 2 gusting 2
2019-Dec-08 09:42 024 1 gusting 3
2019-Dec-08 09:36 010 3 gusting 4
2019-Dec-08 09:30 346 3 gusting 4
2019-Dec-08 09:24 325 4 gusting 5
2019-Dec-08 09:18 343 5 gusting 6
2019-Dec-08 09:12 356 6 gusting 6
2019-Dec-08 09:06 343 5 gusting 5
2019-Dec-08 09:00 342 5 gusting 5
2019-Dec-08 08:54 336 4 gusting 5
2019-Dec-08 08:48 344 5 gusting 6
2019-Dec-08 08:42 295 5 gusting 6
2019-Dec-08 08:36 283 5 gusting 6
2019-Dec-08 08:30 278 3 gusting 3
2019-Dec-08 08:24 294 3 gusting 3
2019-Dec-08 08:18 291 3 gusting 4
2019-Dec-08 08:12 305 3 gusting 4
2019-Dec-08 08:06 304 3 gusting 3
2019-Dec-08 08:00 312 3 gusting 3
2019-Dec-08 07:54 304 3 gusting 3
2019-Dec-08 07:48 293 2 gusting 3
2019-Dec-08 07:42 290 3 gusting 3
2019-Dec-08 07:36 295 2 gusting 3
2019-Dec-08 07:30 305 3 gusting 3
2019-Dec-08 07:24 321 3 gusting 4
2019-Dec-08 07:18 315 3 gusting 4
2019-Dec-08 07:12 312 4 gusting 4
2019-Dec-08 07:06 302 4 gusting 4
2019-Dec-08 07:00 298 3 gusting 4
2019-Dec-08 06:54 283 3 gusting 3
2019-Dec-08 06:48 268 3 gusting 4
2019-Dec-08 06:42 262 4 gusting 4
2019-Dec-08 06:36 268 3 gusting 3
2019-Dec-08 06:30 274 3 gusting 4
2019-Dec-08 06:24 274 3 gusting 3
2019-Dec-08 06:18 269 2 gusting 3
2019-Dec-08 06:12 278 2 gusting 3
2019-Dec-08 06:06 268 1 gusting 3
2019-Dec-08 06:00 347 3 gusting 4
2019-Dec-08 05:54 355 3 gusting 4
2019-Dec-08 05:48 357 2 gusting 3
2019-Dec-08 05:42 052 1 gusting 1
2019-Dec-08 05:36 057 1 gusting 1
2019-Dec-08 05:30 065 1 gusting 1
2019-Dec-08 05:24 066 1 gusting 1
2019-Dec-08 05:18 046 1 gusting 2
2019-Dec-08 05:12 019 2 gusting 2
2019-Dec-08 05:06 053 1 gusting 2
2019-Dec-08 05:00 064 0 gusting 1
2019-Dec-08 04:54 090 0 gusting 0
2019-Dec-08 04:48 115 0 gusting 1
2019-Dec-08 04:42 122 1 gusting 1
2019-Dec-08 04:36 119 0 gusting 1
2019-Dec-08 04:30 127 1 gusting 2
2019-Dec-08 04:24 118 2 gusting 3
2019-Dec-08 04:18 131 2 gusting 2
2019-Dec-08 04:12 132 1 gusting 1
2019-Dec-08 04:06 123 1 gusting 1
2019-Dec-08 04:00 163 1 gusting 1
2019-Dec-08 03:54 270
2019-Dec-08 03:48 271 0 gusting 2
2019-Dec-08 03:42 304 2 gusting 3
2019-Dec-08 03:36 310 2 gusting 2
2019-Dec-08 03:30 303 1 gusting 1
2019-Dec-08 03:24 319 0 gusting 1
2019-Dec-08 03:18 321 1 gusting 2
2019-Dec-08 03:12 315 2 gusting 2
2019-Dec-08 03:06 312 1 gusting 3
2019-Dec-08 03:00 303 3 gusting 4
2019-Dec-08 02:54 296 4 gusting 4
2019-Dec-08 02:48 285 3 gusting 4
2019-Dec-08 02:42 265 2 gusting 2
2019-Dec-08 02:36 261 2 gusting 2
2019-Dec-08 02:30 254 1 gusting 1
2019-Dec-08 02:24 034
2019-Dec-08 02:18 004
2019-Dec-08 02:12 344 0 gusting 1
2019-Dec-08 02:06 351 1 gusting 3
2019-Dec-08 02:00 349 3 gusting 4
2019-Dec-08 01:30 244 1 gusting 2
2019-Dec-08 01:24 239 1 gusting 2
2019-Dec-08 01:18 226 1 gusting 3
2019-Dec-08 01:12 262 2 gusting 3
2019-Dec-08 01:06 224 1 gusting 3
2019-Dec-08 01:00 235 2 gusting 3
2019-Dec-08 00:54 253 3 gusting 3
2019-Dec-08 00:48 212 1 gusting 2
2019-Dec-08 00:42 269 1 gusting 3
2019-Dec-08 00:36 329 3 gusting 5
2019-Dec-08 00:30 339 4 gusting 4
2019-Dec-08 00:24 352 2 gusting 2
2019-Dec-08 00:18 301 1 gusting 3
2019-Dec-08 00:12 277 3 gusting 3
2019-Dec-08 00:06 269 2 gusting 3
2019-Dec-08 00:00 273 1 gusting 2
2019-Dec-07 23:54 307 0 gusting 2
2019-Dec-07 23:36 320 3 gusting 4
2019-Dec-07 23:30 304 4 gusting 5
2019-Dec-07 23:24 299 5 gusting 6
2019-Dec-07 23:18 239 1 gusting 3
2019-Dec-07 23:12 105 3 gusting 4
2019-Dec-07 23:06 088 1 gusting 1
2019-Dec-07 23:00 015 1 gusting 1
2019-Dec-07 22:54 156
2019-Dec-07 22:48 142 1 gusting 1
2019-Dec-07 22:42 201 1 gusting 2
2019-Dec-07 22:36 235 2 gusting 2
2019-Dec-07 22:30 190
2019-Dec-07 22:24 185 1 gusting 2
2019-Dec-07 22:18 209 2 gusting 2
2019-Dec-07 22:12 211 1 gusting 1
2019-Dec-07 22:06 312
2019-Dec-07 22:00 320 0 gusting 0
2019-Dec-07 21:54 330 0 gusting 1
2019-Dec-07 21:48 338 1 gusting 3
2019-Dec-07 21:42 302 3 gusting 4
2019-Dec-07 21:36 291 4 gusting 5
2019-Dec-07 21:30 291 4 gusting 4
2019-Dec-07 21:24 280 1 gusting 2
2019-Dec-07 21:18 301 1 gusting 3
2019-Dec-07 21:12 308 2 gusting 3
2019-Dec-07 21:06 306 2 gusting 4
2019-Dec-07 21:00 293 3 gusting 4
2019-Dec-07 20:54 296 2 gusting 2
2019-Dec-07 20:48 331
2019-Dec-07 20:42 349 0 gusting 0
2019-Dec-07 20:36 043 0 gusting 1
2019-Dec-07 20:30 027
2019-Dec-07 20:24 027
2019-Dec-07 20:18
2019-Dec-07 20:12
2019-Dec-07 20:06
2019-Dec-07 20:00 009 1 gusting 1
2019-Dec-07 19:54 005 1 gusting 1
2019-Dec-07 19:48 001 1 gusting 1
2019-Dec-07 19:42 343 1 gusting 1
2019-Dec-07 19:36 312
2019-Dec-07 19:30 312
2019-Dec-07 19:24 312 1 gusting 1
2019-Dec-07 19:18 300 1 gusting 1
2019-Dec-07 19:12 294 1 gusting 2
2019-Dec-07 19:06 306 2 gusting 3
2019-Dec-07 19:00 292 2 gusting 3
2019-Dec-07 18:54 284 2 gusting 3
2019-Dec-07 18:48 298 2 gusting 3
2019-Dec-07 18:42 351 1 gusting 3
2019-Dec-07 18:36 020 2 gusting 3
2019-Dec-07 18:30 074
2019-Dec-07 18:24 095 2 gusting 3
2019-Dec-07 18:18 195 1 gusting 3
2019-Dec-07 18:12 187 1 gusting 2
2019-Dec-07 18:06 179
2019-Dec-07 18:00 171 0 gusting 2
2019-Dec-07 17:54 148
2019-Dec-07 17:48 147 1 gusting 2
2019-Dec-07 17:42 178 2 gusting 3
2019-Dec-07 17:36 173 0 gusting 1
2019-Dec-07 17:30 098
2019-Dec-07 17:24 116
2019-Dec-07 17:18 142 0 gusting 0
2019-Dec-07 17:12 171 1 gusting 3
2019-Dec-07 17:06 163 1 gusting 2
2019-Dec-07 17:00 186 1 gusting 1
2019-Dec-07 16:54 173 0 gusting 1
2019-Dec-07 16:48 160 1 gusting 2
2019-Dec-07 16:42 140 0 gusting 1
2019-Dec-07 16:36 189
2019-Dec-07 16:30 195 1 gusting 2
2019-Dec-07 16:24 239 1 gusting 1
2019-Dec-07 16:18 219 1 gusting 1
2019-Dec-07 16:12 200 2 gusting 2
2019-Dec-07 16:06 230 1 gusting 2
2019-Dec-07 16:00 212 1 gusting 1
2019-Dec-07 15:54 108
2019-Dec-07 15:48 067 1 gusting 3
2019-Dec-07 15:42 112 2 gusting 3
2019-Dec-07 15:36 094 2 gusting 5
2019-Dec-07 15:30 112 3 gusting 5
2019-Dec-07 15:24 135 4 gusting 6
2019-Dec-07 15:18 142 4 gusting 5
2019-Dec-07 15:12 147 3 gusting 4
2019-Dec-07 15:06 157 3 gusting 4
2019-Dec-07 15:00 153 3 gusting 3
2019-Dec-07 14:54 140 2 gusting 5
2019-Dec-07 14:48 120 4 gusting 6
2019-Dec-07 14:42 110 4 gusting 6
2019-Dec-07 14:36 127 4 gusting 6
2019-Dec-07 14:30 127 5 gusting 6
2019-Dec-07 14:24 119 4 gusting 6
2019-Dec-07 14:18 123 4 gusting 6
2019-Dec-07 14:12 124 5 gusting 6
2019-Dec-07 14:06 127 4 gusting 6
2019-Dec-07 14:00 131 5 gusting 5
2019-Dec-07 13:54 138 5 gusting 5
2019-Dec-07 13:48 137 4 gusting 5
2019-Dec-07 13:42 141 5 gusting 6
2019-Dec-07 13:36 134 5 gusting 6
2019-Dec-07 13:30 129 4 gusting 5
2019-Dec-07 13:24 130 4 gusting 6
2019-Dec-07 13:18 129 5 gusting 6
2019-Dec-07 13:12 129 6 gusting 7
2019-Dec-07 13:06 127 5 gusting 6
2019-Dec-07 13:00 138 5 gusting 6
2019-Dec-07 12:54 153 3 gusting 5
2019-Dec-07 12:48 124 5 gusting 6
2019-Dec-07 12:42 132 4 gusting 6
2019-Dec-07 12:36 138 5 gusting 6
2019-Dec-07 12:30 136 5 gusting 6
2019-Dec-07 12:24 136 5 gusting 6
2019-Dec-07 12:18 130 4 gusting 6
2019-Dec-07 12:12 131 3 gusting 4
2019-Dec-07 12:06 127 3 gusting 5
2019-Dec-07 12:00 135 5 gusting 5